TimeCEST,TemperatureF,Dew PointF,Humidity,Sea Level PressureIn,VisibilityMPH,Wind Direction,Wind SpeedMPH,Gust SpeedMPH,PrecipitationIn,Events,Conditions,WindDirDegrees,DateUTC
12:00 AM,71.6,60.8,69,30.09,-9999.0,South,5.8,-,N/A,,Clear,180,2012-10-08 22:00:00
1:00 AM,71.6,60.8,69,30.06,-9999.0,South,4.6,-,N/A,,Clear,180,2012-10-08 23:00:00
2:00 AM,69.8,59.0,68,30.06,-9999.0,South,4.6,-,N/A,,Clear,180,2012-10-09 00:00:00
3:00 AM,68.0,59.0,73,30.06,-9999.0,South,1.2,-,N/A,,Clear,180,2012-10-09 01:00:00
4:00 AM,66.2,59.0,78,30.04,-9999.0,ESE,2.3,-,N/A,,Clear,120,2012-10-09 02:00:00
5:00 AM,64.4,59.0,83,30.04,-9999.0,Calm,Calm,-,N/A,,Clear,0,2012-10-09 03:00:00
6:00 AM,64.4,59.0,83,30.04,-9999.0,Calm,Calm,-,N/A,,Clear,0,2012-10-09 04:00:00
7:00 AM,64.4,59.0,83,30.04,-9999.0,Calm,Calm,-,N/A,,Clear,0,2012-10-09 05:00:00
8:00 AM,62.6,59.0,88,30.04,-9999.0,NNE,3.5,-,N/A,,Clear,20,2012-10-09 06:00:00
9:00 AM,66.2,59.0,78,30.06,-9999.0,Calm,Calm,-,N/A,,Clear,0,2012-10-09 07:00:00
10:00 AM,69.8,60.8,73,30.06,-9999.0,ENE,3.5,-,N/A,,Clear,60,2012-10-09 08:00:00
11:00 AM,77.0,60.8,57,30.06,-9999.0,ENE,4.6,-,N/A,,Clear,60,2012-10-09 09:00:00
12:00 PM,82.4,62.6,51,30.06,-9999.0,NE,4.6,-,N/A,,Clear,50,2012-10-09 10:00:00
1:00 PM,87.8,62.6,43,30.04,-9999.0,NE,5.8,-,N/A,,Clear,50,2012-10-09 11:00:00
2:00 PM,91.4,62.6,38,30.04,-9999.0,NE,5.8,-,N/A,,Clear,50,2012-10-09 12:00:00
3:00 PM,93.2,60.8,34,30.01,-9999.0,NNE,4.6,-,N/A,,Clear,30,2012-10-09 13:00:00
4:00 PM,95.0,60.8,32,29.98,-9999.0,Variable,1.2,-,N/A,,Clear,0,2012-10-09 14:00:00
5:00 PM,95.0,60.8,32,29.98,-9999.0,North,4.6,-,N/A,,Clear,360,2012-10-09 15:00:00
6:00 PM,95.0,60.8,32,29.95,-9999.0,Variable,2.3,-,N/A,,Clear,0,2012-10-09 16:00:00
7:00 PM,93.2,60.8,34,29.95,-9999.0,NW,5.8,-,N/A,,Clear,310,2012-10-09 17:00:00
8:00 PM,86.0,62.6,45,29.95,5.0,West,5.8,-,N/A,,Unknown,280,2012-10-09 18:00:00
9:00 PM,80.6,62.6,54,29.98,4.3,West,8.1,-,N/A,,Unknown,270,2012-10-09 19:00:00
10:00 PM,77.0,62.6,61,30.01,5.6,SSW,5.8,-,N/A,,Unknown,210,2012-10-09 20:00:00
11:00 PM,75.2,60.8,61,30.01,-9999.0,SSW,6.9,-,N/A,,Clear,210,2012-10-09 21:00:00